Fort Lewis, WA

7:01 PM PST on January 22, 2018 (GMT -0800)
Gray Army Air Field

Weather History for KGRF - March, 2013

Change the Weather History Date:

Wednesday, March 13, 2013

  Actual Average Record
Temperature  
Mean Temperature 50 °F -  
Max Temperature 53 °F 51 °F 64 °F (2005)
Min Temperature 48 °F 36 °F 25 °F (2009)
Degree Days  
Heating Degree Days 14    
Moisture  
Dew Point 50 °F    
Average Humidity 96    
Maximum Humidity 100    
Minimum Humidity 88    
Precipitation  
Precipitation 0.10 in - - ()
Sea Level Pressure  
Sea Level Pressure 30.16 in    
Wind  
Wind Speed 6 mph (South)    
Max Wind Speed 12 mph    
Max Gust Speed -    
Visibility 9 miles    
Events      
Averages and records for this station are not official NWS values.
T = Trace of Precipitation, MM = Missing Value Source: NWS Daily Summary

Daily Weather History Graph

Daily Weather History Graph

Search for Another Location

Airport or City:

Trip Planner

Search our weather history database for the weather conditions in past years. The results will help you decide how hot, cold, wet, or windy it might be!

Date:

Astronomy

Mar. 13, 2013 Rise Set
Actual Time 7:26 AM PDT 7:13 PM PDT
Civil Twilight 6:56 AM PDT 7:44 PM PDT
Nautical Twilight 6:20 AM PDT 8:19 PM PDT
Astronomical Twilight 5:44 AM PDT 8:55 PM PDT
Moon 7:58 AM PDT (3/13) 9:48 PM PDT (3/13)
Length of Visible Light 12h 47m
Length of Day
11h 47m
Waxing Crescent, 4% of the Moon is Illuminated
Mar 13
Waxing Crescent
Mar 19
First Quarter
Mar 27
Full
Apr 2
Last Quarter
Apr 10
New

Hourly Weather History & Observations

Time (PDT) Temp. Dew Point Humidity Pressure Visibility Wind Dir Wind Speed Gust Speed Precip Events Conditions
12:35 AM 50.0 °F 48.2 °F 94% 30.15 in 10.0 mi South 10.4 mph - N/A   Light Drizzle
12:52 AM 50.0 °F 48.2 °F 94% 30.15 in 10.0 mi South 11.5 mph - N/A   Overcast
12:54 AM 50.0 °F 48.2 °F 94% 30.15 in 10.0 mi SSE 11.5 mph - N/A   Light Drizzle
12:58 AM 50.2 °F 48.0 °F 92% 30.17 in 10.0 mi South 10.4 mph - 0.01 in   Light Drizzle
1:09 AM 50.0 °F 48.2 °F 94% 30.16 in 10.0 mi South 10.4 mph - N/A   Overcast
1:58 AM 49.8 °F 48.2 °F 94% 30.19 in 10.0 mi SSE 9.2 mph - 0.00 in   Overcast
2:58 AM 49.3 °F 48.6 °F 97% 30.19 in 10.0 mi SSE 9.2 mph - N/A   Overcast
3:58 AM 49.5 °F 48.0 °F 95% 30.19 in 10.0 mi SSE 6.9 mph - N/A   Overcast
4:33 AM 50.0 °F 48.2 °F 94% 30.19 in 4.0 mi ESE 3.5 mph - N/A   Light Drizzle
4:38 AM 48.2 °F 48.2 °F 100% 30.19 in 4.0 mi ESE 3.5 mph - N/A   Light Drizzle
4:43 AM 48.2 °F 48.2 °F 100% 30.19 in 5.0 mi ESE 3.5 mph - N/A   Light Drizzle
4:44 AM 48.2 °F 48.2 °F 100% 30.18 in 5.0 mi East 3.5 mph - N/A   Overcast
4:46 AM 48.2 °F 48.2 °F 100% 30.19 in 6.0 mi East 2.3 mph - N/A   Overcast
4:51 AM 48.2 °F 48.2 °F 100% 30.19 in 8.0 mi East 2.3 mph - N/A   Overcast
4:58 AM 48.9 °F 48.7 °F 99% 30.21 in 9.0 mi East 3.5 mph - 0.02 in   Mostly Cloudy
5:53 AM 48.2 °F 48.2 °F 100% 30.19 in 10.0 mi ESE 4.6 mph - N/A   Overcast
5:58 AM 48.7 °F 48.6 °F 99% 30.21 in 9.0 mi ESE 4.6 mph - N/A   Overcast
6:13 AM 48.2 °F 48.2 °F 100% 30.19 in 7.0 mi ESE 4.6 mph - N/A   Overcast
6:56 AM 48.2 °F 48.2 °F 100% 30.18 in 4.0 mi ESE 4.6 mph - N/A   Overcast
7:01 AM 48.2 °F 48.2 °F 100% 30.18 in 4.0 mi ESE 5.8 mph - N/A   Overcast
7:55 AM 48.2 °F 48.2 °F 100% 30.18 in 5.0 mi ESE 3.5 mph - N/A   Overcast
7:56 AM 48.2 °F 48.2 °F 100% 30.18 in 5.0 mi ESE 2.3 mph - N/A   Overcast
8:56 AM 50.0 °F 50.0 °F 100% 30.18 in 10.0 mi South 2.3 mph - N/A   Overcast
9:45 AM 50.0 °F 48.2 °F 94% 30.19 in 10.0 mi SSW 6.9 mph - N/A   Light Drizzle
9:56 AM 50.0 °F 48.2 °F 94% 30.19 in 10.0 mi South 2.3 mph - N/A   Overcast
10:37 AM 51.8 °F 48.2 °F 88% 30.19 in 10.0 mi SW 5.8 mph - N/A   Light Drizzle
10:47 AM 51.8 °F 50.0 °F 94% 30.19 in 10.0 mi SW 5.8 mph - N/A   Overcast
10:56 AM 51.8 °F 50.0 °F 94% 30.20 in 10.0 mi WSW 6.9 mph - N/A   Overcast
11:03 AM 51.8 °F 50.0 °F 94% 30.20 in 5.0 mi WSW 8.1 mph - N/A   Light Drizzle
11:56 AM 51.8 °F 50.0 °F 94% 30.21 in 8.0 mi South 5.8 mph - N/A   Light Drizzle
12:56 PM 51.8 °F 50.0 °F 94% 30.20 in 10.0 mi SSE 10.4 mph - N/A   Light Drizzle
1:57 PM 51.8 °F 51.8 °F 100% 30.19 in 10.0 mi SSE 5.8 mph - N/A   Overcast
1:58 PM 52.5 °F 51.1 °F 95% 30.21 in 10.0 mi SSE 4.6 mph - 0.04 in   Overcast
2:08 PM 51.8 °F 51.8 °F 100% 30.19 in 9.0 mi SSE 5.8 mph - N/A   Overcast
2:13 PM 53.6 °F 51.8 °F 94% 30.19 in 10.0 mi Variable 4.6 mph - N/A   Overcast
2:58 PM 53.2 °F 51.3 °F 93% 30.19 in 10.0 mi SE 4.6 mph - 0.01 in   Overcast
3:08 PM 53.6 °F 51.8 °F 94% 30.17 in 10.0 mi SSE 5.8 mph - N/A   Overcast
3:18 PM 53.6 °F 51.8 °F 94% 30.17 in 10.0 mi SSE 5.8 mph - N/A   Overcast
3:43 PM 53.6 °F 50.0 °F 88% 30.16 in 10.0 mi South 3.5 mph - N/A   Overcast
3:58 PM 53.6 °F 51.3 °F 92% 30.18 in 10.0 mi South 3.5 mph - 0.01 in   Overcast
4:18 PM 53.6 °F 51.8 °F 94% 30.16 in 8.0 mi SW 6.9 mph - N/A   Overcast
4:23 PM 53.6 °F 50.0 °F 88% 30.16 in 9.0 mi SSW 5.8 mph - N/A   Overcast
4:58 PM 53.4 °F 51.4 °F 93% 30.17 in 10.0 mi SE 5.8 mph - N/A   Mostly Cloudy
5:10 PM 53.6 °F 51.8 °F 94% 30.14 in 10.0 mi SE 5.8 mph - N/A   Light Drizzle
5:21 PM 53.6 °F 51.8 °F 94% 30.14 in 10.0 mi SE 5.8 mph - N/A   Mostly Cloudy
5:58 PM 53.1 °F 51.8 °F 95% 30.14 in 10.0 mi SSE 3.5 mph - 0.01 in   Mostly Cloudy
6:58 PM 52.9 °F 51.3 °F 94% 30.12 in 10.0 mi West 3.5 mph - N/A   Overcast
7:26 PM 51.8 °F 51.8 °F 100% 30.12 in 10.0 mi West 5.8 mph - N/A   Overcast
7:36 PM 51.8 °F 51.8 °F 100% 30.12 in 10.0 mi West 4.6 mph - N/A   Overcast
7:51 PM 51.8 °F 51.8 °F 100% 30.12 in 10.0 mi WNW 3.5 mph - N/A   Overcast
7:58 PM 51.8 °F 51.6 °F 99% 30.12 in 10.0 mi WNW 4.6 mph - N/A   Overcast
8:20 PM 51.8 °F 51.8 °F 100% 30.12 in 10.0 mi West 5.8 mph - N/A   Overcast
8:30 PM 51.8 °F 51.8 °F 100% 30.13 in 9.0 mi West 5.8 mph - N/A   Overcast
8:35 PM 51.8 °F 50.0 °F 94% 30.12 in 9.0 mi West 5.8 mph - N/A   Overcast
8:58 PM 50.0 °F 49.8 °F 99% 30.12 in 10.0 mi West 8.1 mph - N/A   Overcast
9:03 PM 50.0 °F 50.0 °F 100% 30.12 in 10.0 mi West 5.8 mph - N/A   Overcast
9:08 PM 50.0 °F 50.0 °F 100% 30.12 in 10.0 mi West 4.6 mph - N/A   Overcast
9:18 PM 50.0 °F 50.0 °F 100% 30.12 in 10.0 mi West 3.5 mph - N/A   Overcast
9:33 PM 50.0 °F 50.0 °F 100% 30.12 in 10.0 mi WSW 4.6 mph - N/A   Overcast
9:48 PM 50.0 °F 48.2 °F 94% 30.11 in 10.0 mi SW 1.2 mph - N/A   Overcast
9:58 PM 49.3 °F 48.9 °F 99% 30.11 in 10.0 mi Calm Calm - N/A   Overcast
10:03 PM 50.0 °F 48.2 °F 94% 30.11 in 10.0 mi Calm Calm - N/A   Overcast
10:43 PM 50.0 °F 48.2 °F 94% 30.11 in 10.0 mi Calm Calm - N/A   Overcast
10:58 PM 49.5 °F 49.1 °F 99% 30.11 in 10.0 mi Calm Calm - N/A   Overcast
11:58 PM 49.6 °F 49.5 °F 99% 30.09 in 10.0 mi Calm Calm - N/A   Overcast